Weather History for KITH - October, 2013

Change the Weather History Date:

Sunday, October 27, 2013

  Actual Average Record
Temperature  
Mean Temperature 42 °F -  
Max Temperature 47 °F 55 °F 80 °F (1963)
Min Temperature 37 °F 37 °F 17 °F (1976)
Degree Days  
Heating Degree Days 23    
Moisture  
Dew Point 32 °F    
Average Humidity 70    
Maximum Humidity 87    
Minimum Humidity 54    
Precipitation  
Precipitation 0.00 in - - ()
Sea Level Pressure  
Sea Level Pressure 29.97 in    
Wind  
Wind Speed 8 mph (West)    
Max Wind Speed 13 mph    
Max Gust Speed -    
Visibility 10 miles    
Events      
Averages and records for this station are not official NWS values.
T = Trace of Precipitation, MM = Missing Value Source: NWS Daily Summary

Daily Weather History Graph

Daily Weather History Graph

Search for Another Location

Airport or City:

Trip Planner

Search our weather history database for the weather conditions in past years. The results will help you decide how hot, cold, wet, or windy it might be!

Date:

Astronomy

Oct. 27, 2013 Rise Set
Actual Time 7:33 AM EDT 6:05 PM EDT
Civil Twilight 7:04 AM EDT 6:34 PM EDT
Nautical Twilight 6:31 AM EDT 7:07 PM EDT
Astronomical Twilight 5:58 AM EDT 7:39 PM EDT
Moon 12:20 AM EDT (10/27) 2:20 PM EDT (10/27)
Length of Visible Light 11h 29m
Length of Day
10h 31m
Last Quarter, 44% of the Moon is Illuminated
Oct 27
Last Quarter
Nov 3
New
Nov 10
First Quarter
Nov 17
Full
Nov 25
Last Quarter

Hourly Weather History & Observations

Time (EDT) Temp. Windchill Dew Point Humidity Pressure Visibility Wind Dir Wind Speed Gust Speed Precip Events Conditions
12:56 AM 43.0 °F 39.5 °F 32.0 °F 65% 29.86 in 10.0 mi SW 5.8 mph - 0.00 in   Overcast
1:56 AM 43.0 °F 36.8 °F 32.0 °F 65% 29.85 in 10.0 mi WSW 11.5 mph - N/A   Overcast
2:56 AM 41.9 °F 37.5 °F 32.0 °F 68% 29.86 in 10.0 mi West 6.9 mph - N/A   Overcast
3:56 AM 39.9 °F 33.9 °F 32.9 °F 76% 29.87 in 10.0 mi West 9.2 mph - N/A   Overcast
4:17 AM 41.0 °F 35.8 °F 33.8 °F 76% 29.85 in 10.0 mi West 8.1 mph - N/A   Overcast
4:56 AM 41.0 °F 34.3 °F 32.9 °F 73% 29.88 in 10.0 mi West 11.5 mph - N/A   Mostly Cloudy
5:56 AM 41.0 °F 34.3 °F 32.9 °F 73% 29.91 in 10.0 mi West 11.5 mph - N/A   Overcast
6:27 AM 39.2 °F 33.6 °F 33.8 °F 81% 29.90 in 10.0 mi West 8.1 mph - N/A   Overcast
6:56 AM 37.9 °F 32.7 °F 32.9 °F 82% 29.92 in 10.0 mi West 6.9 mph - N/A   Mostly Cloudy
7:03 AM 37.4 °F 32.1 °F 33.8 °F 87% 29.90 in 10.0 mi West 6.9 mph - N/A   Mostly Cloudy
7:10 AM 37.4 °F 31.4 °F 33.8 °F 87% 29.90 in 10.0 mi West 8.1 mph - N/A   Mostly Cloudy
7:56 AM 37.9 °F 32.7 °F 32.9 °F 82% 29.95 in 10.0 mi WNW 6.9 mph - N/A   Mostly Cloudy
8:56 AM 41.0 °F 36.4 °F 32.9 °F 73% 29.97 in 10.0 mi West 6.9 mph - N/A   Scattered Clouds
9:56 AM 43.9 °F 38.3 °F 34.0 °F 68% 29.99 in 10.0 mi WNW 10.4 mph - N/A   Mostly Cloudy
10:56 AM 43.9 °F 39.3 °F 32.0 °F 63% 29.99 in 10.0 mi WNW 8.1 mph - N/A   Overcast
11:03 AM 44.6 °F 38.8 °F 32.0 °F 61% 29.97 in 10.0 mi NW 11.5 mph - N/A   Overcast
11:56 AM 45.0 °F 40.1 °F 32.0 °F 60% 30.00 in 10.0 mi NW 9.2 mph - N/A   Mostly Cloudy
12:56 PM 45.9 °F 40.8 °F 32.0 °F 58% 30.00 in 10.0 mi WNW 10.4 mph - N/A   Mostly Cloudy
1:56 PM 47.8 °F - 32.0 °F 54% 29.99 in 10.0 mi West 9.2 mph - N/A   Mostly Cloudy
2:56 PM 45.0 °F 39.7 °F 32.9 °F 63% 30.00 in 10.0 mi West 10.4 mph - N/A   Mostly Cloudy
3:56 PM 45.9 °F 40.0 °F 32.9 °F 61% 30.01 in 10.0 mi WNW 12.7 mph - N/A   Mostly Cloudy
4:56 PM 45.0 °F 41.2 °F 32.9 °F 63% 30.03 in 10.0 mi WNW 6.9 mph - N/A   Mostly Cloudy
5:56 PM 43.9 °F 37.9 °F 31.1 °F 61% 30.04 in 10.0 mi West 11.5 mph - N/A   Mostly Cloudy
6:56 PM 41.9 °F 37.5 °F 32.9 °F 70% 30.07 in 10.0 mi WSW 6.9 mph - N/A   Mostly Cloudy
7:56 PM 38.8 °F - 32.0 °F 76% 30.08 in 10.0 mi Calm Calm - N/A   Mostly Cloudy
8:56 PM 38.8 °F 33.8 °F 29.1 °F 68% 30.09 in 10.0 mi West 6.9 mph - N/A   Mostly Cloudy
9:56 PM 37.9 °F 34.4 °F 29.1 °F 71% 30.10 in 10.0 mi SW 4.6 mph - N/A   Partly Cloudy
10:56 PM 39.9 °F 36.7 °F 31.1 °F 71% 30.11 in 10.0 mi SW 4.6 mph - N/A   Overcast
11:56 PM 41.0 °F 39.0 °F 31.1 °F 68% 30.10 in 10.0 mi SW 3.5 mph - N/A   Overcast